Bangkok (Suvarnabhumi), Thailand

5:15 AM +07 on May 01, 2017 (GMT +0700)
Bangkok (Suvarnabhumi)

Weather History for VTBS - April, 2013

Change the Weather History Date:

Wednesday, April 17, 2013

  Actual Average (VTBU) Record (VTBU)
Temperature  
Mean Temperature 81 °F -  
Max Temperature 85 °F 93 °F 96 °F (2002)
Min Temperature 77 °F 78 °F 75 °F (2013)
Cooling Degree Days 16    
Growing Degree Days 31 (Base 50)    
Moisture  
Dew Point 74 °F    
Average Humidity 79    
Maximum Humidity 89    
Minimum Humidity 66    
Precipitation  
Precipitation 0.91 in 0.17 in - ()
Sea Level Pressure  
Sea Level Pressure 29.73 in    
Wind  
Wind Speed 6 mph ()    
Max Wind Speed 13 mph    
Max Gust Speed 26 mph    
Visibility 5.9 miles    
Events Rain , Thunderstorm    
Averages and records for this station are not official NWS values.
T = Trace of Precipitation, MM = Missing Value Source: Averaged Metar Reports

Daily Weather History Graph

Daily Weather History Graph

Search for Another Location

Airport or City:

Trip Planner

Search our weather history database for the weather conditions in past years. The results will help you decide how hot, cold, wet, or windy it might be!

Date:

Astronomy

Apr. 17, 2013 Rise Set
Actual Time 6:02 AM +07 6:29 PM +07
Civil Twilight 5:40 AM +07 6:51 PM +07
Nautical Twilight 5:15 AM +07 7:16 PM +07
Astronomical Twilight 4:49 AM +07 7:41 PM +07
Moon 11:08 AM +07 (4/17) No Moon Set
Length of Visible Light 13h 10m
Length of Day
12h 27m
Waxing Crescent, 38% of the Moon is Illuminated
Apr 17
Waxing Crescent
Apr 18
First Quarter
Apr 26
Full
May 2
Last Quarter
May 10
New

Hourly Weather History & Observations

Time (+07) Temp. Heat Index Dew Point Humidity Pressure Visibility Wind Dir Wind Speed Gust Speed Precip Events Conditions
12:00 AM 82.4 °F 89.5 °F 75.2 °F 79% 29.74 in 6.2 mi SE 9.2 mph - N/A   Mostly Cloudy
12:30 AM 84.2 °F 92.3 °F 75.2 °F 74% 29.74 in 6.2 mi SE 9.2 mph 21.9 mph N/A   Mostly Cloudy
1:00 AM 80 °F - 76 °F 86% 29.72 in 5 mi Calm Calm - -   Mist
1:00 AM 82.4 °F 88.2 °F 73.4 °F 74% 29.71 in 6.2 mi SE 9.2 mph - N/A   Mostly Cloudy
1:30 AM 82.4 °F 89.5 °F 75.2 °F 79% 29.71 in 6.2 mi South 10.4 mph - N/A   Mostly Cloudy
2:00 AM 80.6 °F 85.4 °F 73.4 °F 79% 29.71 in 6.2 mi SSW 6.9 mph - N/A Rain Light Rain
2:30 AM 80.6 °F 85.4 °F 73.4 °F 79% 29.68 in 6.2 mi SSW 4.6 mph - N/A   Mostly Cloudy
3:00 AM 80.6 °F 85.4 °F 73.4 °F 79% 29.68 in 6.2 mi West 3.5 mph - N/A   Mostly Cloudy
3:30 AM 80.6 °F 86.2 °F 75.2 °F 84% 29.68 in 6.2 mi Variable 2.3 mph - N/A   Mostly Cloudy
4:00 AM 78.8 °F - 75.2 °F 89% 29.68 in 5.6 mi NE 2.3 mph - N/A Rain Light Rain
4:30 AM 75.2 °F - 71.6 °F 89% 29.71 in 1.9 mi South 12.7 mph 26.5 mph N/A Rain Heavy Rain
5:00 AM 75.2 °F - 71.6 °F 89% 29.71 in 5.0 mi ESE 5.8 mph - N/A Rain , Thunderstorm Light Thunderstorms and Rain
5:30 AM 77.0 °F - 73.4 °F 89% 29.71 in 6.2 mi East 6.9 mph - N/A Rain Light Rain
6:00 AM 77.0 °F - 73.4 °F 89% 29.71 in 6.2 mi ESE 6.9 mph 19.6 mph N/A   Mostly Cloudy
6:30 AM 78.8 °F - 73.4 °F 83% 29.74 in 6.2 mi East 5.8 mph - N/A   Mostly Cloudy
7:00 AM 78 °F - 75 °F 89% 29.74 in 4 mi Calm Calm - - Rain , Thunderstorm Thunderstorms and Rain
7:00 AM 78.8 °F - 75.2 °F 89% 29.74 in 6.2 mi East 4.6 mph 17.3 mph N/A Rain Light Rain
7:30 AM 78.8 °F - 75.2 °F 89% 29.74 in 6.2 mi East 5.8 mph - N/A Rain Light Rain
8:00 AM 78.8 °F - 73.4 °F 83% 29.77 in 6.2 mi SE 9.2 mph - N/A Rain Light Rain
8:30 AM 78.8 °F - 73.4 °F 83% 29.77 in 5.6 mi ESE 6.9 mph - N/A Rain Light Rain
9:00 AM 78.8 °F - 73.4 °F 83% 29.77 in 5.6 mi ESE 6.9 mph - N/A Rain Light Rain
9:30 AM 78.8 °F - 73.4 °F 83% 29.77 in 5.6 mi SE 8.1 mph - N/A Rain Light Rain
10:00 AM 78.8 °F - 73.4 °F 83% 29.80 in 5.6 mi SE 8.1 mph - N/A Rain Light Rain
10:30 AM 80.6 °F 85.4 °F 73.4 °F 79% 29.80 in 5.6 mi SSE 6.9 mph - N/A Rain Light Rain
11:00 AM 80.6 °F 85.4 °F 73.4 °F 79% 29.80 in 5.6 mi ESE 6.9 mph - N/A Rain Light Rain
11:30 AM 80.6 °F 86.2 °F 75.2 °F 84% 29.77 in 5.6 mi SE 5.8 mph - N/A Rain Light Rain
12:00 PM 82.4 °F 89.5 °F 75.2 °F 79% 29.77 in 6.2 mi SE 6.9 mph - N/A   Mostly Cloudy
12:30 PM 82.4 °F 88.2 °F 73.4 °F 74% 29.77 in 6.2 mi SSE 6.9 mph - N/A   Mostly Cloudy
1:00 PM 82 °F - 76 °F 77% 29.75 in 6 mi SSE 3.5 mph - -   Partly Cloudy
1:00 PM 82.4 °F 88.2 °F 73.4 °F 74% 29.74 in 6.2 mi SE 5.8 mph - N/A   Mostly Cloudy
1:30 PM 84.2 °F 92.3 °F 75.2 °F 74% 29.74 in 6.2 mi SSE 5.8 mph - N/A   Mostly Cloudy
2:00 PM 82.4 °F 88.2 °F 73.4 °F 74% 29.71 in 6.2 mi SE 6.9 mph - N/A   Mostly Cloudy
2:30 PM 84.2 °F 90.9 °F 73.4 °F 70% 29.71 in 6.2 mi SE 8.1 mph - N/A   Mostly Cloudy
3:00 PM 84.2 °F 90.9 °F 73.4 °F 70% 29.71 in 6.2 mi ESE 8.1 mph - N/A   Mostly Cloudy
3:30 PM 84.2 °F 90.9 °F 73.4 °F 70% 29.68 in 6.2 mi ESE 6.9 mph - N/A   Mostly Cloudy
4:00 PM 84.2 °F 90.9 °F 73.4 °F 70% 29.68 in 6.2 mi ESE 6.9 mph - N/A   Mostly Cloudy
4:30 PM 84.2 °F 90.9 °F 73.4 °F 70% 29.68 in 6.2 mi ESE 8.1 mph - N/A   Mostly Cloudy
5:00 PM 84.2 °F 90.9 °F 73.4 °F 70% 29.68 in 6.2 mi ESE 8.1 mph - N/A   Mostly Cloudy
5:30 PM 84.2 °F 89.6 °F 71.6 °F 66% 29.68 in 6.2 mi ESE 6.9 mph - N/A   Mostly Cloudy
6:00 PM 84.2 °F 89.6 °F 71.6 °F 66% 29.68 in 6.2 mi ESE 6.9 mph - N/A   Mostly Cloudy
6:30 PM 84.2 °F 89.6 °F 71.6 °F 66% 29.68 in 6.2 mi SE 6.9 mph - N/A   Mostly Cloudy
7:00 PM 82 °F - 77 °F 79% 29.69 in 6 mi Calm Calm - -   Partly Cloudy
7:00 PM 84.2 °F 90.9 °F 73.4 °F 70% 29.68 in 6.2 mi SE 4.6 mph - N/A   Mostly Cloudy
7:30 PM 82.4 °F 88.2 °F 73.4 °F 74% 29.71 in 6.2 mi South 5.8 mph - N/A   Mostly Cloudy
8:00 PM 84.2 °F 90.9 °F 73.4 °F 70% 29.71 in 6.2 mi SE 6.9 mph - N/A   Mostly Cloudy
8:30 PM 80.6 °F 85.4 °F 73.4 °F 79% 29.74 in 6.2 mi SSE 6.9 mph - N/A   Mostly Cloudy
9:00 PM 80.6 °F 85.4 °F 73.4 °F 79% 29.74 in 6.2 mi SSE 5.8 mph - N/A   Mostly Cloudy
9:30 PM 80.6 °F 85.4 °F 73.4 °F 79% 29.74 in 6.2 mi SE 5.8 mph 17.3 mph N/A   Mostly Cloudy
10:00 PM 80.6 °F 85.4 °F 73.4 °F 79% 29.74 in 6.2 mi SE 4.6 mph - N/A   Mostly Cloudy
10:30 PM 80.6 °F 85.4 °F 73.4 °F 79% 29.74 in 6.2 mi SSE 4.6 mph - N/A   Mostly Cloudy
11:00 PM 80.6 °F 85.4 °F 73.4 °F 79% 29.74 in 6.2 mi South 3.5 mph - N/A   Mostly Cloudy
11:30 PM 80.6 °F 86.2 °F 75.2 °F 84% 29.74 in 6.2 mi South 3.5 mph - N/A   Mostly Cloudy